"datetime","temp","dp","rain_mm","uv","solar","mb","wind_mph","gust_mph","windchill","rh"
"2023-05-30 00:00:00",11.3,6.8,0.0,0.0,0,1026.5,2,5,"",74
"2023-05-30 00:01:00",11.3,7.0,0.0,0.0,0,1026.5,4,8,"",75
"2023-05-30 00:02:00",11.3,6.8,0.0,0.0,0,1026.5,4,6,"",74
"2023-05-30 00:03:00",11.3,6.8,0.0,0.0,0,1026.5,2,4,"",74
"2023-05-30 00:04:00",11.3,7.0,0.0,0.0,0,1026.5,1,2,"",75
"2023-05-30 00:05:00",11.3,6.8,0.0,0.0,0,1026.5,0,1,"",74
"2023-05-30 00:06:00",11.2,6.9,0.0,0.0,0,1026.5,3,6,"",75
"2023-05-30 00:07:00",11.2,6.9,0.0,0.0,0,1026.5,3,5,"",75
"2023-05-30 00:08:00",11.2,6.9,0.0,0.0,0,1026.5,4,9,"",75
"2023-05-30 00:09:00",11.2,6.9,0.0,0.0,0,1026.5,2,4,"",75
"2023-05-30 00:10:00",11.2,6.9,0.0,0.0,0,1026.6,2,3,"",75
"2023-05-30 00:11:00",11.2,6.9,0.0,0.0,0,1026.5,2,4,"",75
"2023-05-30 00:12:00",11.2,6.9,0.0,0.0,0,1026.6,3,6,"",75
"2023-05-30 00:13:00",11.2,6.9,0.0,0.0,0,1026.5,1,2,"",75
"2023-05-30 00:14:00",11.2,6.9,0.0,0.0,0,1026.5,2,4,"",75
"2023-05-30 00:15:00",11.2,6.9,0.0,0.0,0,1026.5,2,3,"",75
"2023-05-30 00:16:00",11.2,6.9,0.0,0.0,0,1026.5,3,4,"",75
"2023-05-30 00:17:00",11.1,6.8,0.0,0.0,0,1026.6,1,4,"",75
"2023-05-30 00:18:00",11.1,7.0,0.0,0.0,0,1026.6,2,5,"",76
"2023-05-30 00:19:00",11.0,6.9,0.0,0.0,0,1026.6,2,3,"",76
"2023-05-30 00:20:00",10.9,6.8,0.0,0.0,0,1026.6,1,2,"",76
"2023-05-30 00:21:00",10.9,6.8,0.0,0.0,0,1026.6,1,2,"",76
"2023-05-30 00:22:00",10.9,6.8,0.0,0.0,0,1026.6,1,2,"",76
"2023-05-30 00:23:00",10.8,6.7,0.0,0.0,0,1026.6,1,2,"",76
"2023-05-30 00:24:00",10.8,6.7,0.0,0.0,0,1026.7,1,2,"",76
"2023-05-30 00:25:00",10.8,6.9,0.0,0.0,0,1026.6,2,3,"",77
"2023-05-30 00:26:00",10.8,6.9,0.0,0.0,0,1026.6,2,5,"",77
"2023-05-30 00:27:00",10.8,6.9,0.0,0.0,0,1026.6,1,2,"",77
"2023-05-30 00:28:00",10.8,6.9,0.0,0.0,0,1026.7,1,3,"",77
"2023-05-30 00:29:00",10.7,6.8,0.0,0.0,0,1026.7,1,2,"",77
"2023-05-30 00:30:00",10.7,6.8,0.0,0.0,0,1026.7,2,3,"",77
"2023-05-30 00:31:00",10.7,6.8,0.0,0.0,0,1026.7,2,3,"",77
"2023-05-30 00:32:00",10.7,6.8,0.0,0.0,0,1026.7,1,3,"",77
"2023-05-30 00:33:00",10.7,6.8,0.0,0.0,0,1026.8,1,3,"",77
"2023-05-30 00:34:00",10.7,6.8,0.0,0.0,0,1026.7,1,3,"",77
"2023-05-30 00:35:00",10.7,6.8,0.0,0.0,0,1026.7,2,3,"",77
"2023-05-30 00:36:00",10.7,6.8,0.0,0.0,0,1026.7,2,5,"",77
"2023-05-30 00:37:00",10.7,7.0,0.0,0.0,0,1026.8,2,5,"",78
"2023-05-30 00:38:00",10.6,6.9,0.0,0.0,0,1026.8,1,3,"",78
"2023-05-30 00:39:00",10.7,7.0,0.0,0.0,0,1026.8,2,6,"",78
"2023-05-30 00:40:00",10.6,6.9,0.0,0.0,0,1026.8,1,3,"",78
"2023-05-30 00:41:00",10.7,7.0,0.0,0.0,0,1026.8,2,3,"",78
"2023-05-30 00:42:00",10.7,7.0,0.0,0.0,0,1026.8,2,4,"",78
"2023-05-30 00:43:00",10.6,6.9,0.0,0.0,0,1026.8,1,3,"",78
"2023-05-30 00:44:00",10.6,6.9,0.0,0.0,0,1026.8,1,3,"",78
"2023-05-30 00:45:00",10.6,6.9,0.0,0.0,0,1026.8,2,4,"",78
"2023-05-30 00:46:00",10.6,6.9,0.0,0.0,0,1026.8,2,4,"",78
"2023-05-30 00:47:00",10.6,6.9,0.0,0.0,0,1026.8,2,3,"",78
"2023-05-30 00:48:00",10.5,6.8,0.0,0.0,0,1026.8,2,3,"",78
"2023-05-30 00:49:00",10.5,6.8,0.0,0.0,0,1026.8,2,4,"",78
"2023-05-30 00:50:00",10.4,6.7,0.0,0.0,0,1026.8,2,3,"",78
"2023-05-30 00:51:00",10.4,6.7,0.0,0.0,0,1026.8,1,2,"",78
"2023-05-30 00:52:00",10.4,6.9,0.0,0.0,0,1026.8,1,3,"",79
"2023-05-30 00:53:00",10.4,6.7,0.0,0.0,0,1026.8,1,3,"",78
"2023-05-30 00:54:00",10.4,6.7,0.0,0.0,0,1026.8,1,3,"",78
"2023-05-30 00:55:00",10.4,6.7,0.0,0.0,0,1026.8,1,2,"",78
"2023-05-30 00:56:00",10.4,6.9,0.0,0.0,0,1026.8,2,3,"",79
"2023-05-30 00:57:00",10.4,6.9,0.0,0.0,0,1026.8,1,2,"",79
"2023-05-30 00:58:00",10.3,6.8,0.0,0.0,0,1026.8,1,2,"",79
"2023-05-30 00:59:00",10.3,6.8,0.0,0.0,0,1026.8,2,4,"",79
"2023-05-30 01:00:00",10.3,6.8,0.0,0.0,0,1026.8,2,3,"",79
"2023-05-30 01:01:00",10.3,6.8,0.0,0.0,0,1026.8,1,3,"",79
"2023-05-30 01:02:00",10.3,6.8,0.0,0.0,0,1026.8,2,4,"",79
"2023-05-30 01:03:00",10.2,6.7,0.0,0.0,0,1026.8,2,4,"",79
"2023-05-30 01:04:00",10.2,6.7,0.0,0.0,0,1026.8,1,3,"",79
"2023-05-30 01:05:00",10.2,6.7,0.0,0.0,0,1026.8,2,6,"",79
"2023-05-30 01:06:00",10.2,6.9,0.0,0.0,0,1026.8,2,6,"",80
"2023-05-30 01:07:00",10.2,6.9,0.0,0.0,0,1026.8,2,4,"",80
"2023-05-30 01:08:00",10.2,6.9,0.0,0.0,0,1026.9,1,3,"",80
"2023-05-30 01:09:00",10.2,6.9,0.0,0.0,0,1026.9,2,4,"",80
"2023-05-30 01:10:00",10.2,6.9,0.0,0.0,0,1026.9,1,2,"",80
"2023-05-30 01:11:00",10.2,6.9,0.0,0.0,0,1026.9,1,2,"",80
"2023-05-30 01:12:00",10.2,6.9,0.0,0.0,0,1026.9,2,3,"",80
"2023-05-30 01:13:00",10.2,6.9,0.0,0.0,0,1026.9,1,5,"",80
"2023-05-30 01:14:00",10.2,6.9,0.0,0.0,0,1026.9,2,3,"",80
"2023-05-30 01:15:00",10.1,6.8,0.0,0.0,0,1026.9,2,5,"",80
"2023-05-30 01:16:00",10.1,6.8,0.0,0.0,0,1026.9,3,5,"",80
"2023-05-30 01:17:00",10.1,6.8,0.0,0.0,0,1026.9,2,4,"",80
"2023-05-30 01:18:00",10.2,6.9,0.0,0.0,0,1026.9,1,2,"",80
"2023-05-30 01:19:00",10.1,6.8,0.0,0.0,0,1027.0,1,2,"",80
"2023-05-30 01:20:00",10.1,6.8,0.0,0.0,0,1027.0,2,3,"",80
"2023-05-30 01:21:00",10.1,6.8,0.0,0.0,0,1027.0,1,3,"",80
"2023-05-30 01:22:00",10.0,6.7,0.0,0.0,0,1027.0,2,4,9.4,80
"2023-05-30 01:23:00",9.9,6.6,0.0,0.0,0,1027.0,1,2,"",80
"2023-05-30 01:24:00",9.9,6.8,0.0,0.0,0,1027.0,3,5,8.9,81
"2023-05-30 01:25:00",9.9,6.8,0.0,0.0,0,1027.0,1,3,"",81
"2023-05-30 01:26:00",10.0,6.9,0.0,0.0,0,1027.0,2,3,"",81
"2023-05-30 01:27:00",10.0,6.9,0.0,0.0,0,1027.0,2,3,"",81
"2023-05-30 01:28:00",9.9,6.8,0.0,0.0,0,1026.9,1,3,"",81
"2023-05-30 01:29:00",9.9,6.8,0.0,0.0,0,1027.0,2,3,"",81
"2023-05-30 01:30:00",10.0,6.9,0.0,0.0,0,1027.0,2,3,"",81
"2023-05-30 01:31:00",10.0,6.9,0.0,0.0,0,1027.0,2,3,"",81
"2023-05-30 01:32:00",10.0,6.9,0.0,0.0,0,1026.9,2,4,9.4,81
"2023-05-30 01:33:00",10.0,6.9,0.0,0.0,0,1026.9,2,4,9.4,81
"2023-05-30 01:34:00",10.0,6.9,0.0,0.0,0,1026.9,3,7,8.3,81
"2023-05-30 01:35:00",10.0,6.9,0.0,0.0,0,1026.9,1,2,"",81
"2023-05-30 01:36:00",10.0,6.9,0.0,0.0,0,1026.9,2,3,"",81
"2023-05-30 01:37:00",10.1,7.0,0.0,0.0,0,1026.9,2,4,"",81
"2023-05-30 01:38:00",10.0,6.9,0.0,0.0,0,1026.9,2,6,9.4,81
"2023-05-30 01:39:00",10.0,6.9,0.0,0.0,0,1026.9,2,4,9.4,81
"2023-05-30 01:40:00",10.0,6.9,0.0,0.0,0,1026.8,2,4,9.4,81
"2023-05-30 01:41:00",9.9,6.8,0.0,0.0,0,1026.8,2,5,9.0,81
"2023-05-30 01:42:00",10.0,6.9,0.0,0.0,0,1026.8,2,3,"",81
"2023-05-30 01:43:00",9.9,6.8,0.0,0.0,0,1026.8,2,5,8.9,81
"2023-05-30 01:44:00",9.9,6.8,0.0,0.0,0,1026.8,2,3,"",81
"2023-05-30 01:45:00",9.9,6.8,0.0,0.0,0,1026.8,2,3,"",81
"2023-05-30 01:46:00",9.9,6.8,0.0,0.0,0,1026.8,2,3,"",81
"2023-05-30 01:47:00",9.9,6.8,0.0,0.0,0,1026.8,2,3,"",81
"2023-05-30 01:48:00",9.9,6.8,0.0,0.0,0,1026.8,1,3,"",81
"2023-05-30 01:49:00",9.9,6.8,0.0,0.0,0,1026.8,4,6,8.6,81
"2023-05-30 01:50:00",9.9,6.8,0.0,0.0,0,1026.8,2,4,9.2,81
"2023-05-30 01:51:00",9.9,6.8,0.0,0.0,0,1026.8,4,7,8.3,81
"2023-05-30 01:52:00",9.9,6.8,0.0,0.0,0,1026.8,2,3,"",81
"2023-05-30 01:53:00",9.9,6.8,0.0,0.0,0,1026.8,4,7,8.3,81
"2023-05-30 01:54:00",9.9,6.8,0.0,0.0,0,1026.8,1,2,"",81
"2023-05-30 01:55:00",9.9,6.8,0.0,0.0,0,1026.8,2,3,"",81
"2023-05-30 01:56:00",9.9,6.8,0.0,0.0,0,1026.8,3,8,8.1,81
"2023-05-30 01:57:00",9.9,6.8,0.0,0.0,0,1026.8,2,5,8.9,81
"2023-05-30 01:58:00",9.9,6.8,0.0,0.0,0,1026.9,2,2,"",81
"2023-05-30 01:59:00",9.9,6.8,0.0,0.0,0,1026.8,1,2,"",81
"2023-05-30 02:00:00",9.9,6.8,0.0,0.0,0,1026.8,1,3,"",81
"2023-05-30 02:01:00",10.0,6.9,0.0,0.0,0,1026.8,3,7,8.4,81
"2023-05-30 02:02:00",10.0,6.9,0.0,0.0,0,1026.8,2,6,8.7,81
"2023-05-30 02:03:00",9.9,6.8,0.0,0.0,0,1026.8,2,6,8.7,81
"2023-05-30 02:04:00",9.9,6.8,0.0,0.0,0,1026.8,2,3,"",81
"2023-05-30 02:05:00",9.9,6.8,0.0,0.0,0,1026.8,2,4,9.2,81
"2023-05-30 02:06:00",9.9,6.8,0.0,0.0,0,1026.8,4,7,8.3,81
"2023-05-30 02:07:00",9.9,6.8,0.0,0.0,0,1026.8,2,4,9.2,81
"2023-05-30 02:08:00",9.9,6.8,0.0,0.0,0,1026.7,4,10,7.7,81
"2023-05-30 02:09:00",9.9,6.8,0.0,0.0,0,1026.8,2,2,"",81
"2023-05-30 02:10:00",9.9,6.8,0.0,0.0,0,1026.8,2,5,8.9,81
"2023-05-30 02:11:00",9.9,6.8,0.0,0.0,0,1026.8,2,4,9.2,81
"2023-05-30 02:12:00",9.9,6.8,0.0,0.0,0,1026.8,2,5,8.9,81
"2023-05-30 02:13:00",9.9,6.8,0.0,0.0,0,1026.8,2,4,9.2,81
"2023-05-30 02:14:00",9.9,6.8,0.0,0.0,0,1026.8,2,4,9.2,81
"2023-05-30 02:15:00",9.8,6.7,0.0,0.0,0,1026.8,3,8,8.1,81
"2023-05-30 02:16:00",9.9,6.8,0.0,0.0,0,1026.8,2,3,"",81
"2023-05-30 02:17:00",9.9,6.8,0.0,0.0,0,1026.8,1,2,"",81
"2023-05-30 02:18:00",9.9,6.8,0.0,0.0,0,1026.8,3,6,8.6,81
"2023-05-30 02:19:00",9.9,6.8,0.0,0.0,0,1026.8,2,3,"",81
"2023-05-30 02:20:00",9.8,6.7,0.0,0.0,0,1026.8,3,6,8.6,81
"2023-05-30 02:21:00",9.8,6.7,0.0,0.0,0,1026.8,2,3,"",81
"2023-05-30 02:22:00",9.8,6.7,0.0,0.0,0,1026.9,1,2,"",81
"2023-05-30 02:23:00",9.8,6.7,0.0,0.0,0,1026.8,2,3,"",81
"2023-05-30 02:24:00",9.8,6.7,0.0,0.0,0,1026.8,2,3,"",81
"2023-05-30 02:25:00",9.8,6.7,0.0,0.0,0,1026.8,1,2,"",81
"2023-05-30 02:26:00",9.8,6.7,0.0,0.0,0,1026.8,1,2,"",81
"2023-05-30 02:27:00",9.8,6.7,0.0,0.0,0,1026.9,1,3,"",81
"2023-05-30 02:28:00",9.7,6.8,0.0,0.0,0,1026.9,1,3,"",82
"2023-05-30 02:29:00",9.7,6.8,0.0,0.0,0,1026.8,1,2,"",82
"2023-05-30 02:30:00",9.7,6.8,0.0,0.0,0,1026.8,1,2,"",82
"2023-05-30 02:31:00",9.7,6.8,0.0,0.0,0,1026.8,2,4,9.0,82
"2023-05-30 02:32:00",9.7,6.8,0.0,0.0,0,1026.8,1,3,"",82
"2023-05-30 02:33:00",9.6,6.7,0.0,0.0,0,1026.9,1,2,"",82
"2023-05-30 02:34:00",9.6,6.7,0.0,0.0,0,1026.9,1,2,"",82
"2023-05-30 02:35:00",9.6,6.7,0.0,0.0,0,1026.9,2,3,"",82
"2023-05-30 02:36:00",9.6,6.7,0.0,0.0,0,1026.9,2,3,"",82
"2023-05-30 02:37:00",9.6,6.7,0.0,0.0,0,1026.9,1,3,"",82
"2023-05-30 02:38:00",9.6,6.7,0.0,0.0,0,1026.9,1,4,8.9,82
"2023-05-30 02:39:00",9.6,6.7,0.0,0.0,0,1026.9,2,3,"",82
"2023-05-30 02:40:00",9.6,6.7,0.0,0.0,0,1026.9,1,2,"",82
"2023-05-30 02:41:00",9.6,6.7,0.0,0.0,0,1026.9,1,1,"",82
"2023-05-30 02:42:00",9.6,6.7,0.0,0.0,0,1026.9,1,3,"",82
"2023-05-30 02:43:00",9.5,6.6,0.0,0.0,0,1026.9,2,5,8.4,82
"2023-05-30 02:44:00",9.5,6.6,0.0,0.0,0,1026.9,1,2,"",82
"2023-05-30 02:45:00",9.5,6.6,0.0,0.0,0,1026.9,2,3,"",82
"2023-05-30 02:46:00",9.5,6.6,0.0,0.0,0,1027.0,2,3,"",82
"2023-05-30 02:47:00",9.5,6.6,0.0,0.0,0,1026.9,1,3,"",82
"2023-05-30 02:48:00",9.4,6.5,0.0,0.0,0,1026.9,0,2,"",82
"2023-05-30 02:49:00",9.4,6.5,0.0,0.0,0,1026.9,1,2,"",82
"2023-05-30 02:50:00",9.4,6.5,0.0,0.0,0,1026.9,2,4,8.7,82
"2023-05-30 02:51:00",9.4,6.7,0.0,0.0,0,1026.9,2,4,8.7,83
"2023-05-30 02:52:00",9.4,6.7,0.0,0.0,0,1026.9,2,3,"",83
"2023-05-30 02:53:00",9.4,6.7,0.0,0.0,0,1027.0,3,5,8.3,83
"2023-05-30 02:54:00",9.4,6.7,0.0,0.0,0,1026.9,2,3,"",83
"2023-05-30 02:55:00",9.4,6.7,0.0,0.0,0,1027.0,1,2,"",83
"2023-05-30 02:56:00",9.4,6.7,0.0,0.0,0,1027.0,1,2,"",83
"2023-05-30 02:57:00",9.4,6.7,0.0,0.0,0,1027.0,1,2,"",83
"2023-05-30 02:58:00",9.3,6.6,0.0,0.0,0,1027.0,1,2,"",83
"2023-05-30 02:59:00",9.3,6.6,0.0,0.0,0,1027.0,1,4,8.6,83
"2023-05-30 03:00:00",9.3,6.6,0.0,0.0,0,1027.0,1,4,8.6,83
"2023-05-30 03:01:00",9.2,6.5,0.0,0.0,0,1027.0,0,1,"",83
"2023-05-30 03:02:00",9.2,6.5,0.0,0.0,0,1027.0,1,3,"",83
"2023-05-30 03:03:00",9.2,6.5,0.0,0.0,0,1027.0,1,3,"",83
"2023-05-30 03:04:00",9.2,6.5,0.0,0.0,0,1027.0,1,2,"",83
"2023-05-30 03:05:00",9.2,6.5,0.0,0.0,0,1027.0,1,3,"",83
"2023-05-30 03:06:00",9.2,6.5,0.0,0.0,0,1027.0,1,2,"",83
"2023-05-30 03:07:00",9.2,6.5,0.0,0.0,0,1027.0,0,1,"",83
"2023-05-30 03:08:00",9.2,6.5,0.0,0.0,0,1027.1,1,2,"",83
"2023-05-30 03:09:00",9.2,6.5,0.0,0.0,0,1027.0,1,3,"",83
"2023-05-30 03:10:00",9.2,6.6,0.0,0.0,0,1027.0,1,1,"",84
"2023-05-30 03:11:00",9.2,6.5,0.0,0.0,0,1027.0,1,2,"",83
"2023-05-30 03:12:00",9.2,6.5,0.0,0.0,0,1027.0,1,2,"",83
"2023-05-30 03:13:00",9.2,6.5,0.0,0.0,0,1027.0,1,3,"",83
"2023-05-30 03:14:00",9.2,6.5,0.0,0.0,0,1027.1,1,3,"",83
"2023-05-30 03:15:00",9.2,6.5,0.0,0.0,0,1027.1,2,3,"",83
"2023-05-30 03:16:00",9.2,6.5,0.0,0.0,0,1027.1,1,2,"",83
"2023-05-30 03:17:00",9.2,6.6,0.0,0.0,0,1027.1,1,2,"",84
"2023-05-30 03:18:00",9.2,6.5,0.0,0.0,0,1027.0,1,2,"",83
"2023-05-30 03:19:00",9.1,6.4,0.0,0.0,0,1027.0,1,3,"",83
"2023-05-30 03:20:00",9.0,6.3,0.0,0.0,0,1027.1,2,4,8.2,83
"2023-05-30 03:21:00",8.9,6.2,0.0,0.0,0,1027.1,1,2,"",83
"2023-05-30 03:22:00",8.9,6.3,0.0,0.0,0,1027.0,1,2,"",84
"2023-05-30 03:23:00",8.9,6.3,0.0,0.0,0,1027.0,1,2,"",84
"2023-05-30 03:24:00",8.9,6.3,0.0,0.0,0,1027.0,0,2,"",84
"2023-05-30 03:25:00",8.9,6.3,0.0,0.0,0,1027.0,1,2,"",84
"2023-05-30 03:26:00",8.8,6.2,0.0,0.0,0,1027.0,1,2,"",84
"2023-05-30 03:27:00",8.8,6.2,0.0,0.0,0,1027.0,0,1,"",84
"2023-05-30 03:28:00",8.8,6.2,0.0,0.0,0,1027.0,0,1,"",84
"2023-05-30 03:29:00",8.7,6.1,0.0,0.0,0,1027.0,1,3,"",84
"2023-05-30 03:30:00",8.7,6.1,0.0,0.0,0,1027.1,2,4,7.9,84
"2023-05-30 03:31:00",8.7,6.3,0.0,0.0,0,1027.0,1,2,"",85
"2023-05-30 03:32:00",8.7,6.3,0.0,0.0,0,1027.0,1,3,"",85
"2023-05-30 03:33:00",8.7,6.3,0.0,0.0,0,1027.0,0,1,"",85
"2023-05-30 03:34:00",8.7,6.3,0.0,0.0,0,1027.0,1,2,"",85
"2023-05-30 03:35:00",8.6,6.2,0.0,0.0,0,1027.0,1,1,"",85
"2023-05-30 03:36:00",8.7,6.3,0.0,0.0,0,1027.0,0,1,"",85
"2023-05-30 03:37:00",8.7,6.3,0.0,0.0,0,1027.1,1,2,"",85
"2023-05-30 03:38:00",8.6,6.2,0.0,0.0,0,1027.1,1,1,"",85
"2023-05-30 03:39:00",8.6,6.2,0.0,0.0,0,1027.0,1,2,"",85
"2023-05-30 03:40:00",8.6,6.2,0.0,0.0,0,1027.1,1,1,"",85
"2023-05-30 03:41:00",8.6,6.2,0.0,0.0,0,1027.0,0,1,"",85
"2023-05-30 03:42:00",8.6,6.2,0.0,0.0,0,1027.1,0,2,"",85
"2023-05-30 03:43:00",8.6,6.2,0.0,0.0,0,1027.1,1,1,"",85
"2023-05-30 03:44:00",8.5,6.1,0.0,0.0,0,1027.0,1,2,"",85
"2023-05-30 03:45:00",8.6,6.2,0.0,0.0,0,1027.1,0,1,"",85
"2023-05-30 03:46:00",8.6,6.4,0.0,0.0,0,1027.1,1,3,"",86
"2023-05-30 03:47:00",8.6,6.4,0.0,0.0,0,1027.0,0,2,"",86
"2023-05-30 03:48:00",8.5,6.1,0.0,0.0,0,1027.1,1,1,"",85
"2023-05-30 03:49:00",8.4,6.0,0.0,0.0,0,1027.1,0,1,"",85
"2023-05-30 03:50:00",8.4,6.2,0.0,0.0,0,1027.1,1,3,"",86
"2023-05-30 03:51:00",8.4,6.0,0.0,0.0,0,1027.0,1,2,"",85
"2023-05-30 03:52:00",8.3,6.1,0.0,0.0,0,1027.1,1,2,"",86
"2023-05-30 03:53:00",8.3,6.1,0.0,0.0,0,1027.1,1,2,"",86
"2023-05-30 03:54:00",8.3,6.1,0.0,0.0,0,1027.0,1,2,"",86
"2023-05-30 03:55:00",8.3,6.1,0.0,0.0,0,1027.1,0,1,"",86
"2023-05-30 03:56:00",8.2,6.0,0.0,0.0,0,1027.1,0,1,"",86
"2023-05-30 03:57:00",8.2,6.0,0.0,0.0,0,1027.2,0,1,"",86
"2023-05-30 03:58:00",8.2,6.0,0.0,0.0,0,1027.1,1,2,"",86
"2023-05-30 03:59:00",8.1,5.9,0.0,0.0,0,1027.2,1,2,"",86
"2023-05-30 04:00:00",8.1,5.9,0.0,0.0,0,1027.2,0,1,"",86
"2023-05-30 04:01:00",8.1,5.9,0.0,0.0,0,1027.2,0,2,"",86
"2023-05-30 04:02:00",8.1,6.1,0.0,0.0,0,1027.2,0,1,"",87
"2023-05-30 04:03:00",8.1,6.1,0.0,0.0,0,1027.2,1,1,"",87
"2023-05-30 04:04:00",8.0,6.0,0.0,0.0,0,1027.2,0,2,"",87
"2023-05-30 04:05:00",8.0,6.0,0.0,0.0,0,1027.2,0,1,"",87
"2023-05-30 04:06:00",8.1,6.1,0.0,0.0,0,1027.2,0,1,"",87
"2023-05-30 04:07:00",8.1,6.1,0.0,0.0,0,1027.2,1,1,"",87
"2023-05-30 04:08:00",8.1,6.1,0.0,0.0,0,1027.2,0,1,"",87
"2023-05-30 04:09:00",8.1,6.1,0.0,0.0,0,1027.2,0,0,"",87
"2023-05-30 04:10:00",8.1,6.1,0.0,0.0,0,1027.3,0,1,"",87
"2023-05-30 04:11:00",8.1,6.1,0.0,0.0,0,1027.2,1,2,"",87
"2023-05-30 04:12:00",8.1,6.1,0.0,0.0,0,1027.2,1,2,"",87
"2023-05-30 04:13:00",8.1,6.1,0.0,0.0,0,1027.2,1,2,"",87
"2023-05-30 04:14:00",8.1,6.1,0.0,0.0,0,1027.2,1,2,"",87
"2023-05-30 04:15:00",8.1,6.1,0.0,0.0,0,1027.2,0,1,"",87
"2023-05-30 04:16:00",8.2,6.2,0.0,0.0,0,1027.3,1,2,"",87
"2023-05-30 04:17:00",8.2,6.2,0.0,0.0,0,1027.3,0,1,"",87
"2023-05-30 04:18:00",8.2,6.2,0.0,0.0,0,1027.3,1,2,"",87
"2023-05-30 04:19:00",8.1,6.1,0.0,0.0,0,1027.3,1,1,"",87
"2023-05-30 04:20:00",8.2,6.2,0.0,0.0,0,1027.3,0,1,"",87
"2023-05-30 04:21:00",8.2,6.2,0.0,0.0,0,1027.3,1,2,"",87
"2023-05-30 04:22:00",8.2,6.2,0.0,0.0,0,1027.2,0,3,"",87
"2023-05-30 04:23:00",8.2,6.2,0.0,0.0,0,1027.2,0,1,"",87
"2023-05-30 04:24:00",8.2,6.2,0.0,0.0,0,1027.2,1,2,"",87
"2023-05-30 04:25:00",8.2,6.2,0.0,0.0,0,1027.2,1,2,"",87
"2023-05-30 04:26:00",8.2,6.2,0.0,0.0,0,1027.2,1,2,"",87
"2023-05-30 04:27:00",8.2,6.2,0.0,0.0,0,1027.2,1,2,"",87
"2023-05-30 04:28:00",8.2,6.2,0.0,0.0,0,1027.2,1,2,"",87
"2023-05-30 04:29:00",8.2,6.2,0.0,0.0,0,1027.2,1,2,"",87
"2023-05-30 04:30:00",8.1,6.1,0.0,0.0,0,1027.3,0,1,"",87
"2023-05-30 04:31:00",8.1,6.1,0.0,0.0,0,1027.3,0,2,"",87
"2023-05-30 04:32:00",8.1,6.1,0.0,0.0,0,1027.3,1,1,"",87
"2023-05-30 04:33:00",8.2,6.2,0.0,0.0,0,1027.3,1,2,"",87
"2023-05-30 04:34:00",8.2,6.2,0.0,0.0,0,1027.3,2,3,"",87
"2023-05-30 04:35:00",8.2,6.2,0.0,0.0,0,1027.3,1,2,"",87
"2023-05-30 04:36:00",8.2,6.2,0.0,0.0,0,1027.3,1,1,"",87
"2023-05-30 04:37:00",8.2,6.2,0.0,0.0,0,1027.3,1,2,"",87
"2023-05-30 04:38:00",8.2,6.2,0.0,0.0,0,1027.4,1,2,"",87
"2023-05-30 04:39:00",8.2,6.2,0.0,0.0,0,1027.4,1,1,"",87
"2023-05-30 04:40:00",8.2,6.2,0.0,0.0,0,1027.4,1,2,"",87
"2023-05-30 04:41:00",8.2,6.2,0.0,0.0,0,1027.4,2,3,"",87
"2023-05-30 04:42:00",8.3,6.3,0.0,0.0,0,1027.4,1,3,"",87
"2023-05-30 04:43:00",8.3,6.3,0.0,0.0,0,1027.4,1,2,"",87
"2023-05-30 04:44:00",8.4,6.4,0.0,0.0,0,1027.4,1,3,"",87
"2023-05-30 04:45:00",8.3,6.3,0.0,0.0,0,1027.4,0,2,"",87
"2023-05-30 04:46:00",8.3,6.3,0.0,0.0,0,1027.4,0,2,"",87
"2023-05-30 04:47:00",8.3,6.3,0.0,0.0,0,1027.4,1,1,"",87
"2023-05-30 04:48:00",8.3,6.3,0.0,0.0,0,1027.4,0,1,"",87
"2023-05-30 04:49:00",8.3,6.3,0.0,0.0,0,1027.4,1,1,"",87
"2023-05-30 04:50:00",8.2,6.2,0.0,0.0,0,1027.4,1,2,"",87
"2023-05-30 04:51:00",8.2,6.2,0.0,0.0,0,1027.4,0,1,"",87
"2023-05-30 04:52:00",8.2,6.2,0.0,0.0,0,1027.4,0,1,"",87
"2023-05-30 04:53:00",8.2,6.2,0.0,0.0,0,1027.4,1,2,"",87
"2023-05-30 04:54:00",8.1,6.1,0.0,0.0,0,1027.4,0,1,"",87
"2023-05-30 04:55:00",8.1,6.1,0.0,0.0,0,1027.4,0,1,"",87
"2023-05-30 04:56:00",8.1,6.1,0.0,0.0,0,1027.4,1,3,"",87
"2023-05-30 04:57:00",8.1,6.1,0.0,0.0,0,1027.4,1,3,"",87
"2023-05-30 04:58:00",8.1,6.1,0.0,0.0,0,1027.4,1,3,"",87
"2023-05-30 04:59:00",8.1,6.1,0.0,0.0,0,1027.4,2,4,7.2,87
"2023-05-30 05:00:00",8.1,6.1,0.0,0.0,0,1027.4,1,2,"",87
"2023-05-30 05:01:00",8.1,6.2,0.0,0.0,0,1027.4,1,2,"",88
"2023-05-30 05:02:00",8.1,6.2,0.0,0.0,0,1027.4,0,1,"",88
"2023-05-30 05:03:00",8.1,6.2,0.0,0.0,5,1027.5,1,2,"",88
"2023-05-30 05:04:00",8.1,6.1,0.0,0.0,5,1027.4,1,2,"",87
"2023-05-30 05:05:00",8.1,6.2,0.0,0.0,5,1027.5,1,1,"",88
"2023-05-30 05:06:00",8.1,6.2,0.0,0.0,5,1027.4,2,3,"",88
"2023-05-30 05:07:00",8.1,6.2,0.0,0.0,5,1027.4,1,2,"",88
"2023-05-30 05:08:00",8.1,6.2,0.0,0.0,5,1027.5,1,2,"",88
"2023-05-30 05:09:00",8.1,6.2,0.0,0.0,5,1027.5,0,1,"",88
"2023-05-30 05:10:00",8.1,6.2,0.0,0.0,5,1027.4,0,1,"",88
"2023-05-30 05:11:00",8.1,6.2,0.0,0.0,5,1027.4,1,3,"",88
"2023-05-30 05:12:00",8.1,6.2,0.0,0.0,7,1027.4,2,4,7.2,88
"2023-05-30 05:13:00",8.1,6.2,0.0,0.0,7,1027.5,1,2,"",88
"2023-05-30 05:14:00",8.2,6.3,0.0,0.0,7,1027.4,1,1,"",88
"2023-05-30 05:15:00",8.2,6.3,0.0,0.0,7,1027.5,0,1,"",88
"2023-05-30 05:16:00",8.3,6.4,0.0,0.0,7,1027.5,0,1,"",88
"2023-05-30 05:17:00",8.3,6.4,0.0,0.0,7,1027.5,1,2,"",88
"2023-05-30 05:18:00",8.4,6.5,0.0,0.0,7,1027.5,0,1,"",88
"2023-05-30 05:19:00",8.4,6.5,0.0,0.0,9,1027.5,1,1,"",88
"2023-05-30 05:20:00",8.4,6.4,0.0,0.0,9,1027.6,1,2,"",87
"2023-05-30 05:21:00",8.4,6.4,0.0,0.0,9,1027.5,2,2,"",87
"2023-05-30 05:22:00",8.5,6.6,0.0,0.0,11,1027.6,1,1,"",88
"2023-05-30 05:23:00",8.5,6.6,0.0,0.0,11,1027.6,2,3,"",88
"2023-05-30 05:24:00",8.6,6.7,0.0,0.0,12,1027.6,1,3,"",88
"2023-05-30 05:25:00",8.7,6.8,0.0,0.0,12,1027.6,0,1,"",88
"2023-05-30 05:26:00",8.7,6.7,0.0,0.0,12,1027.6,1,2,"",87
"2023-05-30 05:27:00",8.7,6.7,0.0,0.0,12,1027.5,1,2,"",87
"2023-05-30 05:28:00",8.8,6.8,0.0,0.0,12,1027.5,1,2,"",87
"2023-05-30 05:29:00",8.8,6.8,0.0,0.0,14,1027.5,1,2,"",87
"2023-05-30 05:30:00",8.8,6.8,0.0,0.0,14,1027.5,1,4,8.0,87
"2023-05-30 05:31:00",8.8,6.8,0.0,0.0,16,1027.5,1,4,8.0,87
"2023-05-30 05:32:00",8.8,6.8,0.0,0.0,18,1027.6,1,3,"",87
"2023-05-30 05:33:00",8.8,6.8,0.0,0.0,19,1027.5,0,1,"",87
"2023-05-30 05:34:00",8.8,6.8,0.0,0.0,18,1027.5,0,1,"",87
"2023-05-30 05:35:00",8.8,6.8,0.0,0.0,18,1027.5,2,4,8.1,87
"2023-05-30 05:36:00",8.9,6.9,0.0,0.0,19,1027.5,1,3,"",87
"2023-05-30 05:37:00",8.9,6.9,0.0,0.0,19,1027.5,1,1,"",87
"2023-05-30 05:38:00",9.0,7.0,0.0,0.0,18,1027.5,0,1,"",87
"2023-05-30 05:39:00",9.1,6.9,0.0,0.0,18,1027.5,0,1,"",86
"2023-05-30 05:40:00",9.0,6.8,0.0,0.0,18,1027.5,1,1,"",86
"2023-05-30 05:41:00",9.0,6.8,0.0,0.0,18,1027.5,0,1,"",86
"2023-05-30 05:42:00",9.0,6.8,0.0,0.0,19,1027.5,1,1,"",86
"2023-05-30 05:43:00",9.0,6.8,0.0,0.0,19,1027.5,1,2,"",86
"2023-05-30 05:44:00",9.1,7.0,0.0,0.0,19,1027.5,2,4,8.3,87
"2023-05-30 05:45:00",9.1,6.9,0.0,0.0,19,1027.6,1,2,"",86
"2023-05-30 05:46:00",9.1,6.9,0.0,0.0,21,1027.6,1,1,"",86
"2023-05-30 05:47:00",9.1,6.9,0.0,0.0,19,1027.5,1,2,"",86
"2023-05-30 05:48:00",9.1,6.9,0.0,0.0,21,1027.5,1,2,"",86
"2023-05-30 05:49:00",9.1,6.9,0.0,0.0,21,1027.5,1,2,"",86
"2023-05-30 05:50:00",9.2,7.0,0.0,0.0,21,1027.5,1,2,"",86
"2023-05-30 05:51:00",9.2,7.0,0.0,0.0,23,1027.5,1,4,8.4,86
"2023-05-30 05:52:00",9.3,7.1,0.0,0.0,23,1027.5,1,1,"",86
"2023-05-30 05:53:00",9.3,7.1,0.0,0.0,25,1027.5,0,2,"",86
"2023-05-30 05:54:00",9.3,7.1,0.0,0.0,25,1027.4,1,2,"",86
"2023-05-30 05:55:00",9.3,7.1,0.0,0.0,25,1027.5,1,3,"",86
"2023-05-30 05:56:00",9.4,7.2,0.0,0.0,26,1027.5,1,3,"",86
"2023-05-30 05:57:00",9.4,7.0,0.0,0.0,26,1027.5,1,4,8.7,85
"2023-05-30 05:58:00",9.4,7.0,0.0,0.0,28,1027.6,2,4,8.7,85
"2023-05-30 05:59:00",9.4,7.0,0.0,0.0,28,1027.5,3,4,8.7,85
"2023-05-30 06:00:00",9.4,7.0,0.0,0.0,30,1027.5,1,2,"",85
"2023-05-30 06:01:00",9.5,7.1,0.0,0.0,30,1027.6,1,2,"",85
"2023-05-30 06:02:00",9.5,7.1,0.0,0.0,30,1027.6,1,2,"",85
"2023-05-30 06:03:00",9.6,7.2,0.0,0.0,30,1027.5,1,4,8.9,85
"2023-05-30 06:04:00",9.5,7.1,0.0,0.0,30,1027.6,1,3,"",85
"2023-05-30 06:05:00",9.6,7.2,0.0,0.0,32,1027.6,1,3,"",85
"2023-05-30 06:06:00",9.6,7.2,0.0,0.0,33,1027.6,1,2,"",85
"2023-05-30 06:07:00",9.6,7.2,0.0,0.0,33,1027.6,1,2,"",85
"2023-05-30 06:08:00",9.6,7.2,0.0,0.0,33,1027.6,0,2,"",85
"2023-05-30 06:09:00",9.6,7.2,0.0,0.0,33,1027.6,1,3,"",85
"2023-05-30 06:10:00",9.6,7.2,0.0,0.0,35,1027.6,2,5,8.5,85
"2023-05-30 06:11:00",9.6,7.0,0.0,0.0,35,1027.5,1,2,"",84
"2023-05-30 06:12:00",9.7,7.1,0.0,0.0,39,1027.6,0,1,"",84
"2023-05-30 06:13:00",9.7,7.1,0.0,0.0,37,1027.5,0,1,"",84
"2023-05-30 06:14:00",9.8,7.2,0.0,0.0,35,1027.5,1,2,"",84
"2023-05-30 06:15:00",9.7,7.1,0.0,0.0,37,1027.6,1,3,"",84
"2023-05-30 06:16:00",9.8,7.2,0.0,0.0,39,1027.6,1,2,"",84
"2023-05-30 06:17:00",9.8,7.2,0.0,0.0,39,1027.5,1,2,"",84
"2023-05-30 06:18:00",9.8,7.2,0.0,0.0,39,1027.5,3,6,8.5,84
"2023-05-30 06:19:00",9.8,7.2,0.0,0.0,42,1027.6,2,4,9.1,84
"2023-05-30 06:20:00",9.9,7.3,0.0,0.0,40,1027.6,1,3,"",84
"2023-05-30 06:21:00",9.9,7.3,0.0,0.0,46,1027.6,2,4,9.2,84
"2023-05-30 06:22:00",9.9,7.3,0.0,0.0,46,1027.6,1,2,"",84
"2023-05-30 06:23:00",9.9,7.3,0.0,0.0,47,1027.6,2,5,8.9,84
"2023-05-30 06:24:00",9.9,7.3,0.0,0.0,49,1027.6,1,3,"",84
"2023-05-30 06:25:00",9.9,7.3,0.0,0.0,47,1027.6,1,3,"",84
"2023-05-30 06:26:00",10.0,7.4,0.0,0.0,49,1027.6,2,3,"",84
"2023-05-30 06:27:00",10.0,7.4,0.0,0.0,49,1027.6,1,4,9.4,84
"2023-05-30 06:28:00",10.0,7.2,0.0,0.0,46,1027.6,1,2,"",83
"2023-05-30 06:29:00",10.1,7.3,0.0,0.0,53,1027.7,0,1,"",83
"2023-05-30 06:30:00",10.1,7.3,0.0,0.0,51,1027.6,1,2,"",83
"2023-05-30 06:31:00",10.1,7.3,0.0,0.0,53,1027.7,2,3,"",83
"2023-05-30 06:32:00",10.1,7.5,0.0,0.0,54,1027.7,2,3,"",84
"2023-05-30 06:33:00",10.2,7.6,0.0,0.0,58,1027.7,2,3,"",84
"2023-05-30 06:34:00",10.2,7.4,0.0,0.0,58,1027.7,2,3,"",83
"2023-05-30 06:35:00",10.2,7.4,0.0,0.0,54,1027.7,1,2,"",83
"2023-05-30 06:36:00",10.2,7.4,0.0,0.0,63,1027.7,2,3,"",83
"2023-05-30 06:37:00",10.2,7.4,0.0,0.0,58,1027.7,2,4,"",83
"2023-05-30 06:38:00",10.3,7.5,0.0,0.0,60,1027.7,2,3,"",83
"2023-05-30 06:39:00",10.3,7.5,0.0,0.0,62,1027.7,3,7,"",83
"2023-05-30 06:40:00",10.3,7.5,0.0,0.0,65,1027.8,2,3,"",83
"2023-05-30 06:41:00",10.4,7.6,0.0,0.0,70,1027.7,1,3,"",83
"2023-05-30 06:42:00",10.4,7.6,0.0,0.0,62,1027.7,2,4,"",83
"2023-05-30 06:43:00",10.4,7.6,0.0,0.0,58,1027.7,2,3,"",83
"2023-05-30 06:44:00",10.4,7.5,0.0,0.0,62,1027.8,2,3,"",82
"2023-05-30 06:45:00",10.4,7.5,0.0,0.0,56,1027.9,4,8,"",82
"2023-05-30 06:46:00",10.4,7.5,0.0,0.0,63,1027.8,3,6,"",82
"2023-05-30 06:47:00",10.5,7.6,0.0,0.0,62,1027.8,2,4,"",82
"2023-05-30 06:48:00",10.4,7.5,0.0,0.0,62,1027.8,1,3,"",82
"2023-05-30 06:49:00",10.5,7.6,0.0,0.0,65,1027.8,2,3,"",82
"2023-05-30 06:50:00",10.5,7.6,0.0,0.0,65,1027.8,2,4,"",82
"2023-05-30 06:51:00",10.5,7.4,0.0,0.0,63,1027.8,2,3,"",81
"2023-05-30 06:52:00",10.5,7.6,0.0,0.0,63,1027.9,2,5,"",82
"2023-05-30 06:53:00",10.6,7.5,0.0,0.0,67,1027.8,1,2,"",81